Theta_e
314 317 319 322 325 323 322 321 319 320 319 319 318 319 319 319 319 321 323 326 329 336 341 342 342 343 342 342 338 336 336 335 334 332 331 331 330 336 340 337 336 336 335 334 332 328 323 322 323
316 317 319 322 322 320 321 320 320 320 319 318 318 318 319 319 319 322 326 326 330 336 340 344 341 343 342 342 339 336 336 335 333 331 329 329 329 337 338 336 334 333 333 332 332 325 321 321 320
317 316 323 323 321 320 321 320 320 319 317 318 318 317 318 319 320 322 325 327 332 336 340 344 341 342 342 342 341 336 335 335 334 332 331 330 330 335 335 333 332 330 330 331 331 327 322 319 317
318 319 318 320 320 318 319 318 319 319 318 317 317 318 316 318 321 324 327 330 334 336 339 342 341 342 343 342 340 336 336 336 335 333 332 331 330 330 334 333 331 329 326 327 327 327 323 319 312
315 320 321 320 319 317 317 317 318 319 317 317 316 317 317 315 319 325 328 331 333 336 338 340 339 340 341 341 341 340 337 336 335 335 334 335 332 331 333 332 331 327 326 325 325 324 320 316 308
320 319 321 320 318 317 317 316 317 316 315 316 316 316 317 314 315 321 325 329 333 336 336 339 337 338 339 340 340 340 339 337 336 337 336 336 334 330 331 331 330 327 327 325 323 321 318 313 303
320 320 321 320 319 318 318 314 316 316 316 316 315 316 316 312 312 321 320 322 326 333 336 338 339 337 338 338 339 339 339 338 336 337 336 335 335 333 331 331 329 328 326 326 324 321 318 310 301
317 319 319 319 318 319 317 315 314 316 316 313 314 315 316 311 308 313 313 313 316 325 331 334 335 337 337 340 339 340 339 338 336 335 335 334 335 335 334 333 332 330 328 327 326 325 322 313 302
312 316 318 319 318 318 316 316 314 313 315 314 312 311 308 306 308 311 311 310 310 309 313 321 331 333 337 337 339 338 338 337 336 335 335 334 336 335 333 332 331 330 328 327 326 325 324 321 310
316 316 315 316 316 318 316 316 316 315 316 314 313 309 306 306 307 308 308 308 308 307 307 308 313 325 334 335 335 336 336 338 338 337 335 334 334 333 332 330 331 331 330 327 326 325 324 323 319
315 315 312 314 315 316 317 316 315 316 316 315 315 311 307 307 306 306 306 305 305 305 307 308 309 311 321 333 333 334 334 336 337 335 333 332 331 331 330 331 331 330 329 327 326 325 324 323 322
317 315 315 316 316 315 317 316 316 315 314 308 307 306 306 306 305 304 304 304 304 305 307 309 312 311 311 324 332 332 333 333 333 333 332 334 332 328 330 331 332 330 329 328 327 325 324 322 322
318 317 315 315 314 315 313 316 315 313 308 306 305 305 305 304 303 303 302 303 304 305 307 309 314 316 313 319 331 332 332 333 334 333 332 332 330 331 331 331 330 330 328 328 327 326 324 321 320
314 314 315 314 313 313 314 314 313 309 307 306 306 305 304 302 301 303 302 303 303 305 307 310 318 319 318 326 329 331 330 329 330 329 329 331 331 331 329 329 329 327 327 326 326 324 323 322 319
313 315 315 314 312 313 312 313 313 309 307 307 305 304 302 301 301 300 300 301 302 305 307 314 317 318 320 324 326 327 327 327 327 327 327 326 326 327 326 327 326 325 325 324 324 324 323 321 319
314 314 319 314 313 311 313 320 312 308 308 308 306 304 302 300 299 299 298 299 300 303 306 313 315 318 321 322 322 322 322 322 320 321 319 323 323 324 323 323 321 321 322 322 321 321 319 318 318
314 320 317 317 312 313 314 319 312 308 309 309 306 304 302 301 299 298 297 298 299 301 304 310 313 314 316 317 320 319 318 318 314 315 316 318 317 318 318 316 315 316 316 316 315 315 314 314 314
320 317 316 318 314 313 315 316 311 308 309 309 306 304 302 301 298 296 296 297 298 301 303 308 313 314 316 314 312 311 310 307 305 305 306 308 310 308 308 307 308 308 308 307 309 309 309 308 307
316 316 318 315 312 314 316 316 314 310 308 308 306 304 302 300 297 296 295 296 298 299 301 302 303 303 306 306 305 302 299 296 296 298 299 301 302 302 301 300 300 301 301 301 303 306 307 305 303
313 316 317 314 311 313 315 315 315 310 310 309 306 304 302 300 298 296 295 295 296 296 298 300 302 301 301 301 299 296 294 291 291 292 294 295 298 298 297 296 295 295 296 296 298 299 303 303 301
313 315 316 316 312 311 313 316 316 311 307 305 304 303 301 301 299 297 295 294 294 294 295 297 299 301 301 301 298 294 292 291 290 289 289 289 290 290 290 289 289 289 289 289 290 293 296 299 299
316 312 312 313 314 319 313 323 317 314 310 305 303 302 301 299 297 295 294 293 292 291 291 293 294 295 295 294 294 294 292 290 288 287 286 287 287 286 286 286 286 286 286 286 286 287 288 290 290
317 310 312 312 315 315 315 318 320 310 312 308 304 302 301 299 297 295 293 291 289 290 290 290 291 293 293 293 292 291 289 288 287 287 286 285 285 285 285 285 285 285 285 284 284 285 286 286 287
309 312 311 312 314 320 319 318 321 315 314 311 305 302 300 298 296 293 291 289 289 288 288 289 289 289 290 290 289 289 288 287 287 286 286 285 285 284 284 284 284 284 284 283 283 283 283 284 285
312 316 322 321 320 323 311 316 320 315 309 310 306 302 300 297 295 293 291 290 289 288 288 287 287 287 287 288 287 287 287 287 286 286 286 286 285 284 284 283 283 283 283 283 283 283 283 283 283
313 318 324 328 323 321 310 317 317 308 305 304 306 303 300 298 295 294 292 290 289 288 288 287 287 286 286 286 286 286 286 286 285 285 285 285 284 283 283 283 283 282 282 282 282 282 282 282 282
312 314 315 314 306 319 318 314 313 305 305 303 304 302 300 298 296 295 292 290 289 288 288 287 287 286 286 285 285 285 285 285 285 285 284 284 283 283 283 282 282 282 281 281 282 281 281 281 281
312 312 316 316 325 325 319 318 320 311 309 304 303 302 301 299 297 295 292 290 289 289 287 287 286 286 286 285 285 285 285 285 285 285 284 284 283 283 282 282 281 281 281 281 281 281 280 280 281
312 313 313 315 318 326 325 320 314 315 311 307 305 303 302 299 298 296 294 291 289 288 287 286 286 286 285 285 285 285 285 285 285 285 284 284 283 282 282 282 281 280 280 280 279 279 279 279 279
312 314 314 319 318 314 316 321 306 308 309 307 306 303 302 300 298 297 295 292 289 288 287 287 286 286 286 285 285 285 285 285 285 284 284 283 283 282 282 281 280 280 280 279 278 278 278 278 278
Wind_Speed
6 4 1 2 3 2 4 4 2 2 2 2 2 2 9 6 5 4 1 6 2 10 16 18 17 14 12 10 11 10 8 8 8 8 9 8 7 7 9 7 10 11 11 12 12 11 9 10 9
3 1 0 0 2 6 6 2 4 4 3 0 1 1 3 7 4 4 2 4 3 10 17 16 20 16 13 11 11 9 7 6 6 7 7 7 7 8 8 7 9 10 8 9 11 9 8 8 8
1 2 2 1 1 5 6 3 3 3 2 0 2 2 2 4 5 4 6 5 3 9 14 14 19 17 14 12 10 9 7 7 6 5 5 5 7 7 6 7 9 8 7 7 10 8 7 7 6
1 2 2 0 8 3 3 4 2 4 2 1 1 5 4 7 4 7 6 5 3 7 12 13 17 16 14 12 9 9 8 7 5 4 4 4 6 6 6 6 4 5 5 7 7 7 7 7 7
3 1 2 4 4 3 1 0 1 2 2 3 1 4 4 8 6 8 7 5 4 4 8 12 16 15 13 11 9 9 10 8 6 4 4 4 5 6 6 4 2 5 6 8 7 8 7 7 7
1 1 3 6 5 3 2 1 2 2 1 3 2 4 4 8 10 8 7 7 6 4 5 7 14 15 14 14 11 10 9 9 6 3 3 6 5 5 5 3 1 4 6 7 8 9 9 8 7
1 1 3 6 8 6 4 1 3 3 4 4 1 3 6 10 13 6 8 9 8 7 4 2 5 13 15 14 12 12 11 10 7 7 6 5 6 3 4 2 2 4 4 7 10 11 11 9 7
2 2 6 4 8 6 4 3 1 1 3 2 3 3 4 8 12 2 5 7 7 5 4 4 5 9 13 12 15 15 13 11 9 8 7 6 7 6 4 0 1 3 4 8 10 12 14 13 8
1 3 5 7 8 6 4 5 1 2 1 3 4 4 5 10 7 3 3 7 6 6 3 1 6 10 12 13 12 16 14 12 11 9 6 6 7 8 4 2 3 3 3 7 9 11 14 13 11
2 2 4 3 4 6 5 2 2 4 2 4 5 7 6 8 9 9 10 9 10 10 8 4 4 8 12 13 14 15 14 11 10 9 7 5 5 4 4 5 7 5 4 3 6 9 12 12 10
1 0 4 4 3 3 4 2 2 2 3 3 2 4 6 7 9 9 8 9 10 10 9 9 6 6 9 12 12 12 13 10 6 5 7 8 9 9 8 7 8 7 6 6 6 6 8 12 11
2 2 3 3 3 3 3 2 3 4 3 6 7 5 4 6 8 9 8 9 10 9 10 10 8 5 6 9 11 11 8 10 7 8 6 3 5 7 10 10 9 7 7 7 7 7 7 8 11
3 3 3 4 4 3 2 6 3 6 7 7 8 6 6 7 7 6 6 7 8 9 11 11 9 5 3 10 9 10 8 6 6 6 7 9 7 4 5 7 8 8 7 5 6 8 8 7 8
1 2 3 4 4 5 6 3 4 5 9 7 5 7 8 9 9 6 8 9 10 10 11 10 12 10 7 10 12 14 12 9 7 7 6 2 3 8 6 4 6 7 8 8 8 8 8 7 8
1 4 5 7 4 5 7 4 9 11 11 7 6 5 5 6 7 8 9 9 11 10 10 11 13 14 16 17 19 18 17 15 15 12 10 11 9 6 4 3 1 4 6 7 8 9 9 9 8
1 2 4 4 4 2 7 4 6 13 11 7 5 4 4 6 7 8 9 9 10 11 12 14 15 16 20 22 24 25 23 21 19 17 17 15 14 12 11 9 8 6 2 3 4 6 7 7 9
3 5 7 3 2 2 7 1 9 11 7 6 5 4 3 5 7 8 8 7 7 9 11 16 18 21 22 25 26 25 23 22 22 21 20 17 17 15 13 13 12 11 11 10 8 6 5 6 7
7 6 5 7 3 4 6 10 9 9 7 5 6 5 4 5 6 7 7 7 7 9 12 16 22 24 26 27 27 27 25 23 20 19 18 16 16 15 13 14 13 12 12 13 11 10 9 8 10
1 4 9 2 1 4 11 13 11 8 6 8 7 6 6 5 6 8 9 8 9 10 12 13 14 12 13 15 16 16 19 18 20 20 19 18 17 17 16 15 14 13 15 14 14 9 10 11 14
5 8 14 5 3 4 9 13 14 11 9 10 10 10 10 8 7 8 9 10 11 12 13 14 15 14 13 13 16 15 18 19 19 20 23 22 21 20 20 19 19 17 15 17 18 17 9 10 16
11 14 12 9 2 5 5 15 19 7 6 6 9 10 11 13 13 11 9 9 10 12 12 16 18 19 22 23 23 22 21 19 18 19 22 24 23 24 24 23 21 21 20 20 20 19 19 14 13
14 12 10 7 4 9 2 7 5 9 9 10 12 13 13 12 9 8 10 11 10 11 12 14 15 16 17 16 16 19 17 17 15 16 18 21 21 22 22 22 22 22 20 20 19 18 17 16 16
6 5 9 7 9 6 8 7 7 4 11 13 15 15 15 13 12 11 10 11 10 11 13 16 18 19 19 19 20 20 21 19 16 15 16 18 20 20 20 20 20 21 20 19 19 18 17 14 13
13 7 5 3 2 8 15 13 7 8 8 13 16 18 18 16 14 14 10 9 9 10 13 16 18 19 19 18 18 20 20 17 16 14 13 12 13 15 17 17 18 17 17 16 16 14 15 13 10
7 11 4 5 5 7 1 10 12 7 5 7 21 20 18 16 14 13 14 13 12 12 12 15 16 18 17 18 19 18 17 17 16 13 12 11 10 11 14 13 13 14 14 13 13 13 12 12 11
17 14 6 7 6 2 2 8 5 1 5 4 11 19 19 18 15 16 20 18 17 16 15 15 15 17 17 16 18 17 16 14 14 13 12 11 10 9 10 10 10 11 11 11 11 11 12 11 11
8 10 3 4 1 2 6 5 7 4 6 6 11 17 19 19 18 17 20 19 19 18 17 17 17 16 15 17 17 16 15 14 14 13 11 10 9 8 6 7 8 10 11 12 12 13 13 13 13
5 10 4 4 5 7 6 7 9 9 13 11 13 18 19 18 18 16 21 21 20 18 17 17 16 17 18 17 16 15 15 13 13 11 9 8 7 4 4 5 6 8 9 11 11 11 10 11 11
6 7 5 3 4 4 5 5 6 12 15 18 17 18 20 21 20 18 22 21 20 18 18 18 18 18 18 18 17 17 15 13 12 10 9 8 5 3 1 4 6 8 9 11 11 10 10 12 12
11 10 13 6 6 4 3 6 3 2 8 13 14 16 18 19 19 20 24 23 22 21 20 21 20 19 19 19 19 17 16 15 13 12 9 7 4 1 2 5 7 9 10 11 10 10 10 12 13
Wind_Direction
328 332 1 228 202 120 93 88 335 137 133 47 358 339 64 46 23 57 28 168 86 165 172 172 169 171 171 167 160 151 140 131 126 120 116 115 106 96 116 88 67 57 53 51 50 47 48 52 53
317 343 89 170 174 137 105 100 115 66 45 85 146 148 92 70 47 82 93 171 355 173 173 174 176 172 174 174 170 162 149 139 129 123 119 116 111 113 118 80 49 38 39 35 43 41 43 47 45
296 67 256 74 104 117 124 165 126 94 21 237 129 20 21 41 55 44 0 166 57 159 176 180 178 177 180 179 179 173 168 158 145 133 124 117 112 124 93 72 54 33 34 17 31 25 28 30 26
275 170 121 194 112 90 102 146 162 157 141 67 38 98 108 35 23 10 43 122 83 166 181 194 185 183 187 189 195 190 184 175 165 156 144 130 119 115 101 79 46 24 13 37 20 21 14 17 11
42 240 116 115 106 117 185 127 207 166 98 82 322 95 80 41 35 41 48 52 60 139 170 189 196 195 197 198 206 216 200 194 188 179 161 154 132 129 123 136 161 350 3 17 29 28 13 11 8
138 290 171 163 142 158 187 182 205 148 119 105 90 127 82 51 43 31 50 59 68 108 164 193 207 207 207 207 211 217 222 209 201 194 215 195 160 141 147 145 11 22 22 19 13 14 9 12 9
110 197 129 155 152 170 157 170 195 127 147 84 55 151 123 48 17 39 65 71 75 88 98 163 212 219 217 213 213 228 233 228 215 213 223 210 187 163 157 128 56 22 23 11 12 9 4 7 12
99 106 144 175 181 170 149 163 123 330 104 61 338 159 159 354 348 26 73 67 71 91 133 180 197 211 218 224 222 224 235 239 242 235 234 225 224 208 184 80 23 352 10 2 5 4 8 5 4
261 181 171 174 178 147 143 175 136 5 239 78 34 43 4 344 356 40 55 39 40 33 29 224 215 211 209 222 224 229 231 241 240 237 238 240 230 212 217 260 281 288 327 341 346 354 358 3 3
277 237 163 169 162 152 141 176 164 194 166 138 116 88 39 34 39 42 31 16 13 5 357 333 250 224 214 208 212 216 226 235 226 224 222 222 245 223 252 280 284 282 298 309 333 343 347 348 354
74 271 146 173 162 143 148 184 148 202 204 71 127 110 44 41 46 44 32 16 356 349 350 347 322 252 216 213 205 208 214 224 224 221 244 239 248 258 266 266 257 270 281 282 289 319 332 344 347
199 148 160 136 175 159 192 123 195 219 91 89 91 90 75 48 40 29 15 4 357 354 349 348 341 314 240 201 197 198 194 207 219 215 217 214 238 250 254 247 240 248 256 274 283 293 309 329 339
206 177 194 162 181 224 168 220 252 166 132 117 107 95 70 56 41 27 16 9 2 1 356 355 356 347 238 175 178 179 179 170 170 191 216 224 231 250 259 244 246 245 256 246 273 281 299 317 331
116 224 254 240 206 201 214 212 199 165 154 131 115 70 50 38 23 22 19 11 11 8 9 17 39 45 88 135 154 142 141 138 136 102 82 84 230 242 254 255 246 252 253 260 262 266 273 285 299
39 282 275 226 198 213 182 203 225 146 162 135 111 90 66 38 29 25 12 9 8 14 22 56 72 92 111 129 129 123 118 117 114 109 97 86 80 80 82 81 304 274 268 275 266 275 284 285 291
258 262 255 132 167 146 204 209 154 158 164 147 125 105 88 60 42 29 19 19 18 25 39 69 82 96 110 113 110 108 105 100 88 83 78 84 85 85 82 77 76 64 41 344 314 296 291 285 289
214 255 228 283 185 152 217 215 151 169 189 163 148 135 111 83 54 37 32 41 53 62 68 80 90 97 104 110 112 109 105 100 92 86 82 83 81 78 78 79 73 72 68 61 50 31 18 350 333
205 220 231 239 168 210 225 244 165 177 205 189 166 153 123 91 50 37 42 51 67 79 86 98 108 112 114 110 105 99 92 85 77 73 69 73 74 74 74 69 64 58 50 46 40 38 34 23 352
180 220 252 200 170 244 239 256 198 180 188 189 182 165 136 104 79 65 53 60 72 78 80 76 79 81 95 95 92 87 80 72 70 69 67 64 64 60 60 58 54 52 54 41 34 26 25 13 360
227 245 252 271 206 238 249 253 254 199 221 210 182 171 155 138 114 88 83 85 89 93 95 103 103 97 97 100 104 97 94 81 78 72 69 68 66 65 62 59 55 51 48 45 36 30 25 22 16
226 230 240 260 151 213 275 264 247 208 202 189 186 169 163 157 146 137 118 101 97 91 97 108 114 117 115 112 108 104 98 90 81 73 73 69 70 68 67 64 61 57 53 47 44 37 32 24 28
236 221 238 237 242 260 223 280 232 206 204 199 184 180 168 160 147 139 131 108 92 90 97 102 106 108 107 112 113 115 110 101 89 88 87 83 80 76 72 68 65 62 57 51 44 41 40 40 30
257 143 206 220 237 267 212 263 239 195 223 203 190 182 175 167 162 157 148 131 124 116 112 110 110 112 116 117 116 113 111 112 110 100 91 85 80 77 74 71 66 63 57 51 45 40 36 36 33
138 105 89 95 203 252 227 218 206 212 219 181 184 186 179 173 172 162 155 147 131 120 118 121 121 118 119 116 114 117 120 123 120 115 102 91 83 73 68 65 62 58 55 48 43 38 33 31 25
186 164 195 223 210 248 151 214 252 237 181 187 187 183 179 175 174 169 172 168 157 149 138 132 130 125 126 128 129 127 125 122 121 117 111 104 90 76 69 61 55 51 46 41 34 28 22 17 13
193 192 199 214 205 223 130 226 238 321 127 134 186 178 176 178 182 182 181 177 173 167 159 150 142 137 137 140 133 128 125 124 116 112 112 103 92 80 67 54 46 39 33 28 22 17 11 7 2
179 214 178 113 97 257 208 237 250 185 194 174 166 176 184 184 186 188 184 183 181 180 174 163 156 152 153 145 137 135 132 129 124 118 112 107 98 84 63 40 29 22 15 13 10 4 360 359 353
200 145 170 217 214 231 210 240 223 202 208 184 185 192 188 187 190 191 190 190 190 187 178 172 169 166 160 153 149 145 139 135 133 128 123 120 109 94 62 29 11 3 359 357 359 357 352 349 343
174 194 209 210 220 231 258 233 218 199 192 189 197 194 190 191 192 192 192 194 192 187 184 182 178 177 168 165 162 156 156 154 150 153 154 148 139 138 61 3 355 354 351 350 350 345 342 342 334
233 222 191 200 189 246 307 248 160 161 182 186 189 192 194 195 194 194 194 192 190 193 191 190 189 187 183 176 173 173 171 173 173 176 172 162 164 144 358 344 348 342 343 341 338 337 335 331 328